Fairbanks, AK

8:34 PM AKDT on August 25, 2019 (GMT -0800)
Fairbanks International

Weather History for PAFA - December, 1974

Change the Weather History Date:

Sunday, December 8, 1974

  Actual Average Record
Temperature  
Mean Temperature -2 °F -3 °F  
Max Temperature 6 °F 6 °F 55 °F (1934)
Min Temperature -9 °F -10 °F -53 °F (1935)
Degree Days  
Heating Degree Days 67 68  
Month to date heating degree days 541  
Since 1 July heating degree days 4672  
Cooling Degree Days 0 0  
Month to date cooling degree days 0  
Year to date cooling degree days 61  
Moisture  
Dew Point -10 °F    
Average Humidity 65    
Maximum Humidity 73    
Minimum Humidity 58    
Precipitation  
Precipitation 0.12 in 0.02 in 0.30 in (1931)
Month to date precipitation 0.15  
Year to date precipitation 10.32  
Snow  
Snow 0.00 in 0.40 in 8.00 in (2011)
Month to date snowfall 3.0  
Since 1 July snowfall 28.8  
Snow Depth -    
Sea Level Pressure  
Sea Level Pressure 29.36 in    
Wind  
Wind Speed 1 mph (South)    
Max Wind Speed 5 mph    
Max Gust Speed -    
Visibility 5 miles    
Events Snow    
T = Trace of Precipitation, MM = Missing Value Source: NWS Daily Summary

Daily Weather History Graph

Daily Weather History Graph

Search for Another Location

Airport or City:

Astronomy

Dec. 08, 1974 Rise Set
Actual Time 9:38 AM AHST 1:48 PM AHST
Civil Twilight 8:18 AM AHST 3:08 PM AHST
Nautical Twilight 7:08 AM AHST 4:18 PM AHST
Astronomical Twilight 6:07 AM AHST 5:19 PM AHST
Moon 2:49 AM AHST (12/8) 12:04 PM AHST (12/8)
Length of Visible Light 6h 50m
Length of Day
4h 10m
Waning Crescent, 24% of the Moon is Illuminated
Dec 8
Waning Crescent
Dec 13
New
Dec 21
First Quarter
Dec 28
Full
Jan 4
Last Quarter

Hourly Weather History & Observations

Time (AHST) Temp. Windchill Dew Point Humidity Pressure Visibility Wind Dir Wind Speed Gust Speed Precip Events Conditions
12:00 AM -9.9 °F - -20.9 °F 59% 29.21 in 10.0 mi Calm Calm - N/A   Overcast
1:00 AM -9.0 °F - -20.0 °F 59% 29.22 in 10.0 mi Calm Calm - N/A   Overcast
2:00 AM -8.0 °F -16.9 °F -18.0 °F 61% 29.22 in 10.0 mi SSW 3.5 mph - N/A Snow Light Snow
2:37 AM - - - N/A% 29.17 in 10.0 mi Calm Calm - N/A   Unknown
3:00 AM -7.1 °F -18.1 °F -17.0 °F 62% 29.22 in 5.0 mi SSW 4.6 mph - N/A Snow Light Snow
4:00 AM -6.0 °F - -16.1 °F 62% 29.22 in 6.0 mi Calm Calm - N/A Snow Light Snow
5:00 AM -5.1 °F - -15.0 °F 62% 29.23 in 6.0 mi Calm Calm - N/A Snow Light Snow
6:00 AM -4.0 °F - -14.1 °F 62% 29.24 in 5.0 mi Calm Calm - N/A Snow Light Snow
7:00 AM -2.9 °F - -13.0 °F 62% 29.26 in 3.0 mi Calm Calm - 0.02 in Snow Light Snow
7:42 AM - - - N/A% 29.22 in 2.0 mi Calm Calm - N/A   Unknown
8:00 AM -2.0 °F - -11.0 °F 66% 29.28 in 2.0 mi Calm Calm - 0.02 in Snow Light Snow
9:00 AM -2.0 °F - -11.0 °F 66% 29.31 in 2.0 mi Calm Calm - 0.02 in Snow Light Snow
10:00 AM -0.9 °F -8.9 °F -9.9 °F 66% 29.34 in 2.0 mi NE 3.5 mph - 0.01 in Snow Light Snow
10:03 AM - - - N/A% 29.29 in 1.0 mi Calm Calm - N/A   Unknown
11:00 AM -0.0 °F - -9.0 °F 66% 29.36 in 1.0 mi Calm Calm - 0.03 in Snow Light Snow
12:00 PM 1.0 °F - -7.1 °F 69% 29.38 in 1.0 mi Calm Calm - 0.01 in Snow Light Snow
12:06 PM - - - N/A% 29.33 in 5.5 mi Calm Calm - N/A   Unknown
1:00 PM 1.9 °F - -6.0 °F 69% 29.40 in 2.0 mi Calm Calm - N/A Snow Light Snow
2:00 PM 1.9 °F -5.6 °F -8.0 °F 63% 29.43 in 6.0 mi South 3.5 mph - 0.01 in Snow Light Snow
3:00 PM 3.0 °F - -5.1 °F 69% 29.44 in 7.0 mi Calm Calm - N/A Snow Light Snow
3:40 PM - - - N/A% 29.41 in 2.0 mi Calm Calm - N/A   Unknown
4:00 PM 3.0 °F - -5.1 °F 69% 29.46 in 3.0 mi Calm Calm - N/A Snow Light Snow
5:00 PM 3.9 °F - -8.0 °F 58% 29.48 in 10.0 mi Calm Calm - N/A Snow Light Snow
6:00 PM 5.0 °F - -4.0 °F 66% 29.49 in 3.0 mi Calm Calm - N/A Snow Light Snow
7:00 PM 5.0 °F - -2.9 °F 70% 29.51 in 3.0 mi Calm Calm - N/A Snow Light Snow
8:00 PM 5.0 °F - -2.9 °F 70% 29.53 in 5.0 mi Calm Calm - N/A Snow Light Snow
9:00 PM 5.0 °F - -2.0 °F 73% 29.54 in 7.0 mi Calm Calm - N/A Snow Light Snow
10:00 PM 5.0 °F - -2.0 °F 73% 29.55 in 7.0 mi Calm Calm - N/A Snow Light Snow
11:00 PM 6.1 °F - -2.9 °F 67% 29.57 in 7.0 mi Calm Calm - N/A Snow Light Snow